TimeCDT,TemperatureF,Dew PointF,Humidity,Sea Level PressureIn,VisibilityMPH,Wind Direction,Wind SpeedMPH,Gust SpeedMPH,PrecipitationIn,Events,Conditions,WindDirDegrees,DateUTC
12:00 AM,12.2,8.6,85,29.97,15.0,NNW,15.0,-,N/A,,Partly Cloudy,330,2014-05-17 05:00:00
1:00 AM,9,4,72,29.98,15,NNW,6.9,,,,Scattered Clouds,340,2014-05-17 06:00:00
1:00 AM,8.6,5.0,85,29.98,15.0,NNW,6.9,-,N/A,,Mostly Cloudy,340,2014-05-17 06:00:00
2:00 AM,12.2,8.6,85,29.99,15.0,Calm,Calm,-,N/A,,Mostly Cloudy,0,2014-05-17 07:00:00
3:00 AM,10.4,6.8,85,30.00,15.0,NNW,5.8,-,N/A,,Mostly Cloudy,330,2014-05-17 08:00:00
4:00 AM,12.2,8.6,85,30.02,15.0,NW,13.8,-,N/A,Snow,Light Snow,320,2014-05-17 09:00:00
5:00 AM,8.6,5.0,85,30.03,15.0,WNW,15.0,-,N/A,,Partly Cloudy,300,2014-05-17 10:00:00
6:00 AM,6.8,3.2,85,30.04,15.0,NW,12.7,-,N/A,,Partly Cloudy,320,2014-05-17 11:00:00
7:00 AM,11,7,75,30.05,15,NW,18.4,,,Snow,Light Snow,310,2014-05-17 12:00:00
7:00 AM,10.4,6.8,85,30.05,15.0,NW,20.7,-,N/A,Snow,Low Drifting Snow,310,2014-05-17 12:00:00
8:00 AM,12.2,6.8,79,30.06,15.0,NW,15.0,-,N/A,Snow,Low Drifting Snow,310,2014-05-17 13:00:00
9:00 AM,12.2,8.6,85,30.08,15.0,NNW,5.8,-,N/A,,Scattered Clouds,340,2014-05-17 14:00:00
10:00 AM,14.0,10.4,86,30.09,15.0,NW,5.8,-,N/A,,Partly Cloudy,310,2014-05-17 15:00:00
11:00 AM,15.8,10.4,79,30.10,15.0,NNW,9.2,-,N/A,,Partly Cloudy,330,2014-05-17 16:00:00
12:00 PM,15.8,10.4,79,30.12,15.0,NW,8.1,-,N/A,,Partly Cloudy,310,2014-05-17 17:00:00
1:00 PM,16,10,69,30.12,15,NW,9.2,,,,Scattered Clouds,320,2014-05-17 18:00:00
1:00 PM,15.8,10.4,79,30.12,15.0,NW,9.2,-,N/A,,Partly Cloudy,320,2014-05-17 18:00:00
2:00 PM,17.6,12.2,79,30.12,15.0,NW,11.5,-,N/A,,Scattered Clouds,310,2014-05-17 19:00:00
3:00 PM,15.8,10.4,79,30.13,15.0,WNW,11.5,-,N/A,,Partly Cloudy,300,2014-05-17 20:00:00
4:00 PM,15.8,12.2,86,30.13,15.0,NW,12.7,-,N/A,,Partly Cloudy,310,2014-05-17 21:00:00
5:00 PM,17.6,12.2,79,30.14,15.0,WNW,9.2,-,N/A,,Mostly Cloudy,300,2014-05-17 22:00:00
6:00 PM,17.6,12.2,79,30.14,15.0,WNW,4.6,-,N/A,,Scattered Clouds,290,2014-05-17 23:00:00
6:34 PM,-9999,-9999,N/A,-9999,15.0,WNW,6.9,-,N/A,,Mostly Cloudy,290,2014-05-17 23:34:00
7:00 PM,18,12,67,30.14,15,WNW,6.9,,,,Mostly Cloudy,300,2014-05-18 00:00:00
7:00 PM,17.6,12.2,79,30.14,15.0,WNW,8.1,-,N/A,,Mostly Cloudy,300,2014-05-18 00:00:00
8:00 PM,17.6,12.2,79,30.14,15.0,WNW,6.9,-,N/A,,Mostly Cloudy,300,2014-05-18 01:00:00
9:00 PM,15.8,12.2,86,30.14,15.0,West,6.9,-,N/A,,Overcast,270,2014-05-18 02:00:00
9:15 PM,-9999,-9999,N/A,-9999,15.0,WSW,4.6,-,N/A,,Unknown,250,2014-05-18 02:15:00
10:00 PM,14.0,12.2,93,30.14,15.0,WSW,8.1,-,N/A,Snow,Light Snow,250,2014-05-18 03:00:00
11:00 PM,15.8,14.0,93,30.14,15.0,WSW,8.1,-,N/A,Snow,Light Snow,240,2014-05-18 04:00:00